Regional Weather Roundup
Issued by NWS

Home | Current Version | Previous Version | Graphics & Text | Print | Product List | Glossary On
Versions: 1 2 3 4 5 6 7 8 9 10 11 12 13 14 15 16 17 18 19 20 21 22 23 24 25 26 27 28 29 30 31 32 33 34 35 36 37 38 39 40 41 42 43 44 45 46 47 48 49 50
000
ASUS43 KBIS 280110
RWRND

NORTH DAKOTA REGIONAL WEATHER ROUNDUP
NATIONAL WEATHER SERVICE BISMARCK ND
700 PM CST MON FEB 27 2017

NOTE: "FAIR" INDICATES FEW OR NO CLOUDS BELOW 12,000 FEET WITH NO
SIGNIFICANT WEATHER AND/OR OBSTRUCTIONS TO VISIBILITY.


NDZ001>003-009>011-017-280200-
NORTHWEST NORTH DAKOTA

CITY           SKY/WX    TMP DP  RH WIND       PRES   REMARKS
WILLISTON      FAIR      13   7  77 E3        29.84R
MINOT          CLOUDY    10   5  80 N6        29.86R WCI   0
MINOT AFB      CLEAR      9   2  76 N3        29.87R
$$

NDZ018>021-031>035-040>046-280200-
SOUTHWEST NORTH DAKOTA

CITY           SKY/WX    TMP DP  RH WIND       PRES   REMARKS
BISMARCK       CLOUDY    21  16  81 NE10      29.83R WCI  10
DICKINSON      CLOUDY    16  12  84 E10       29.74R WCI   4
GARRISON         N/A     11   7  84 NE3       29.84R
HETTINGER ARPT CLOUDY    23  17  78 NE12      29.73R WCI  12
$$

NDZ004>008-012>016-024-026-027-054-280200-
NORTHEAST NORTH DAKOTA

CITY           SKY/WX    TMP DP  RH WIND       PRES   REMARKS
GRAND FORKS    CLOUDY    20  10  65 N16       29.91S WCI   6
GRND FRKS AFB  CLOUDY    18  13  82 NE14      29.92R WCI   4
DEVILS LAKE    LGT SNOW  15  12  88 NE6       29.89R FOG     WCI   6
$$

NDZ022-023-025-028>030-036>039-047>053-280200-
SOUTHEAST NORTH DAKOTA

CITY           SKY/WX    TMP DP  RH WIND       PRES   REMARKS
FARGO          CLOUDY    29  22  75 N14       29.83R WCI  18
JAMESTOWN      CLOUDY    25  19  78 NE10      29.82R WCI  15
$$




USA.gov is the U.S. government's official web portal to all federal, state and local government web resources and services.